New Orleans, LA

1:25 AM CST on December 03, 2016 (GMT -0600)
Lakefront

Weather History for KNEW - May, 2014

Change the Weather History Date:

Friday, May 2, 2014

  Actual Average Record
Temperature  
Mean Temperature 67 °F 73 °F  
Max Temperature 75 °F 82 °F 92 °F (2002)
Min Temperature 59 °F 64 °F 49 °F (1971)
Degree Days  
Heating Degree Days 0 0  
Month to date heating degree days 0 0  
Since 1 July heating degree days 1581 1279  
Cooling Degree Days 2 8  
Month to date cooling degree days 3 8  
Year to date cooling degree days 206 265  
Growing Degree Days 19 (Base 50)    
Moisture  
Dew Point 47 °F    
Average Humidity 48    
Maximum Humidity 67    
Minimum Humidity 29    
Precipitation  
Precipitation 0.00 in 0.14 in 1.77 in (1961)
Month to date precipitation 0.00 0.14  
Year to date precipitation 16.59 19.75  
Snow  
Snow 0.00 in - - ()
Month to date snowfall 0.0  
Since 1 July snowfall T  
Snow Depth 0.00 in    
Sea Level Pressure  
Sea Level Pressure 29.99 in    
Wind  
Wind Speed 6 mph (North)    
Max Wind Speed 14 mph    
Max Gust Speed 17 mph    
Visibility 10 miles    
Events      
T = Trace of Precipitation, MM = Missing Value Source: NWS Daily Summary

Daily Weather History Graph

Daily Weather History Graph

Search for Another Location

Airport or City:

Trip Planner

Search our weather history database for the weather conditions in past years. The results will help you decide how hot, cold, wet, or windy it might be!

Date:

Astronomy

May. 02, 2014 Rise Set
Actual Time 6:16 AM CDT 7:38 PM CDT
Civil Twilight 5:50 AM CDT 8:03 PM CDT
Nautical Twilight 5:20 AM CDT 8:34 PM CDT
Astronomical Twilight 4:49 AM CDT 9:05 PM CDT
Moon 8:58 AM CDT (5/2) 10:56 PM CDT (5/2)
Length of Visible Light 14h 12m
Length of Day
13h 21m
Waxing Crescent, 12% of the Moon is Illuminated
May 2
Waxing Crescent
May 6
First Quarter
May 14
Full
May 21
Last Quarter
May 28
New

Hourly Weather History & Observations

Time (CDT) Temp. Dew Point Humidity Pressure Visibility Wind Dir Wind Speed Gust Speed Precip Events Conditions
12:53 AM 69.1 °F 48.0 °F 47% 30.01 in 10.0 mi NNE 12.7 mph - N/A   Mostly Cloudy
1:53 AM 66.9 °F 46.9 °F 49% 30.01 in 10.0 mi North 10.4 mph - N/A   Mostly Cloudy
2:53 AM 66.9 °F 48.0 °F 51% 29.99 in 10.0 mi NNE 16.1 mph - N/A   Overcast
3:53 AM 66.9 °F 48.0 °F 51% 29.98 in 10.0 mi NNE 16.1 mph - N/A   Clear
4:53 AM 66.9 °F 50.0 °F 54% 29.97 in 10.0 mi NE 13.8 mph - N/A   Clear
5:53 AM 66.0 °F 51.1 °F 59% 29.97 in 10.0 mi NE 11.5 mph - N/A   Clear
6:53 AM 66.0 °F 50.0 °F 56% 30.00 in 10.0 mi NNE 10.4 mph - N/A   Scattered Clouds
7:53 AM 66.9 °F 48.0 °F 51% 30.01 in 10.0 mi NNE 12.7 mph - N/A   Mostly Cloudy
8:53 AM 69.1 °F 48.0 °F 47% 30.02 in 10.0 mi NNE 10.4 mph - N/A   Partly Cloudy
9:53 AM 69.1 °F 48.0 °F 47% 30.01 in 10.0 mi NE 9.2 mph - N/A   Scattered Clouds
10:53 AM 71.1 °F 46.0 °F 41% 30.02 in 10.0 mi NNE 6.9 mph - N/A   Clear
11:53 AM 71.1 °F 45.0 °F 39% 30.03 in 10.0 mi NW 6.9 mph - N/A   Clear
12:53 PM 72.0 °F 46.0 °F 40% 30.01 in 10.0 mi NW 5.8 mph - N/A   Clear
1:53 PM 71.1 °F 45.0 °F 39% 29.99 in 10.0 mi NW 6.9 mph - N/A   Clear
2:53 PM 72.0 °F 45.0 °F 38% 29.97 in 10.0 mi WNW 9.2 mph - N/A   Scattered Clouds
3:53 PM 72.0 °F 46.0 °F 40% 29.97 in 10.0 mi WNW 11.5 mph - N/A   Scattered Clouds
4:53 PM 72.0 °F 46.9 °F 41% 29.95 in 10.0 mi NNW 12.7 mph - N/A   Clear
5:53 PM 72.0 °F 45.0 °F 38% 29.95 in 10.0 mi NNW 9.2 mph - N/A   Clear
6:53 PM 71.6 °F 44.6 °F 38% 29.97 in 10.0 mi NW 5.8 mph - N/A   Clear
7:53 PM 70.0 °F 46.0 °F 42% 29.96 in 10.0 mi WNW 3.5 mph - N/A   Clear
8:53 PM 70.0 °F 44.1 °F 39% 29.97 in 10.0 mi NNW 3.5 mph - N/A   Clear
9:53 PM 69.1 °F 46.0 °F 44% 29.99 in 10.0 mi Calm Calm - N/A   Mostly Cloudy
10:53 PM 70.0 °F 45.0 °F 41% 30.01 in 10.0 mi Calm Calm - N/A   Scattered Clouds
11:53 PM 64.9 °F 50.0 °F 58% 30.01 in 10.0 mi South 3.5 mph - N/A   Clear